Time,TemperatureF,DewpointF,PressureIn,WindDirection,WindDirectionDegrees,WindSpeedMPH,WindSpeedGustMPH,Humidity,HourlyPrecipIn,Conditions,Clouds,dailyrainin,SoftwareType,DateUTC
2013-01-21 00:22:00,52.0,6.0,30.02,North,0,0.0,3.0,15,0.00,,,-99.99,,2013-01-21 08:22:00,
2013-01-21 00:32:00,52.0,6.0,30.02,North,0,0.0,3.0,15,0.00,,,-99.99,,2013-01-21 08:32:00,
2013-01-21 00:42:00,52.0,6.0,30.02,North,0,0.0,3.0,15,0.00,,,-99.99,,2013-01-21 08:42:00,
2013-01-21 00:53:00,52.0,6.0,30.02,North,0,0.0,3.0,15,0.00,,,-99.99,,2013-01-21 08:53:00,
2013-01-21 01:22:00,58.0,2.0,29.99,East,80,13.0,18.0,10,0.00,,,-99.99,,2013-01-21 09:22:00,
2013-01-21 01:33:00,58.0,2.0,29.99,East,80,13.0,18.0,10,0.00,,,-99.99,,2013-01-21 09:33:00,
2013-01-21 01:42:00,58.0,2.0,29.99,East,80,13.0,18.0,10,0.00,,,-99.99,,2013-01-21 09:42:00,
2013-01-21 01:52:00,58.0,2.0,29.99,East,80,13.0,18.0,10,0.00,,,-99.99,,2013-01-21 09:52:00,
2013-01-21 02:22:00,58.0,2.0,29.98,East,80,6.0,17.0,10,0.00,,,-99.99,,2013-01-21 10:22:00,
2013-01-21 02:32:00,58.0,2.0,29.98,East,80,6.0,17.0,10,0.00,,,-99.99,,2013-01-21 10:32:00,
2013-01-21 02:42:00,58.0,2.0,29.98,East,80,6.0,17.0,10,0.00,,,-99.99,,2013-01-21 10:42:00,
2013-01-21 02:52:00,58.0,2.0,29.98,East,80,6.0,17.0,10,0.00,,,-99.99,,2013-01-21 10:52:00,
2013-01-21 03:23:00,58.0,0.0,29.97,East,80,10.0,19.0,9,0.00,,,-99.99,,2013-01-21 11:23:00,
2013-01-21 03:32:00,58.0,0.0,29.97,East,80,10.0,19.0,9,0.00,,,-99.99,,2013-01-21 11:32:00,
2013-01-21 03:42:00,58.0,0.0,29.97,East,80,10.0,19.0,9,0.00,,,-99.99,,2013-01-21 11:42:00,
2013-01-21 03:53:00,58.0,0.0,29.97,East,80,10.0,19.0,9,0.00,,,-99.99,,2013-01-21 11:53:00,
2013-01-21 04:22:00,58.0,0.0,29.95,East,80,13.0,25.0,9,0.00,,,-99.99,,2013-01-21 12:22:00,
2013-01-21 04:32:00,58.0,0.0,29.95,East,80,13.0,25.0,9,0.00,,,-99.99,,2013-01-21 12:32:00,
2013-01-21 04:42:00,58.0,0.0,29.95,East,80,13.0,25.0,9,0.00,,,-99.99,,2013-01-21 12:42:00,
2013-01-21 04:52:00,58.0,0.0,29.95,East,80,13.0,25.0,9,0.00,,,-99.99,,2013-01-21 12:52:00,
2013-01-21 05:23:00,57.0,-1.0,29.95,East,80,12.0,26.0,9,0.00,,,-99.99,,2013-01-21 13:23:00,
2013-01-21 05:33:00,57.0,-1.0,29.95,East,80,12.0,26.0,9,0.00,,,-99.99,,2013-01-21 13:33:00,
2013-01-21 05:42:00,57.0,-1.0,29.95,East,80,12.0,26.0,9,0.00,,,-99.99,,2013-01-21 13:42:00,
2013-01-21 05:53:00,57.0,-1.0,29.95,East,80,12.0,26.0,9,0.00,,,-99.99,,2013-01-21 13:53:00,
2013-01-21 06:23:00,57.0,-1.0,29.95,East,80,14.0,28.0,9,0.00,,,-99.99,,2013-01-21 14:23:00,
2013-01-21 06:32:00,57.0,-1.0,29.95,East,80,14.0,28.0,9,0.00,,,-99.99,,2013-01-21 14:32:00,
2013-01-21 06:43:00,57.0,-1.0,29.95,East,80,14.0,28.0,9,0.00,,,-99.99,,2013-01-21 14:43:00,
2013-01-21 06:52:00,57.0,-1.0,29.95,East,80,14.0,28.0,9,0.00,,,-99.99,,2013-01-21 14:52:00,
2013-01-21 07:23:00,57.0,1.0,29.96,East,80,12.0,30.0,10,0.00,,,-99.99,,2013-01-21 15:23:00,
2013-01-21 07:33:00,57.0,1.0,29.96,East,80,12.0,30.0,10,0.00,,,-99.99,,2013-01-21 15:33:00,
2013-01-21 07:42:00,57.0,1.0,29.96,East,80,12.0,30.0,10,0.00,,,-99.99,,2013-01-21 15:42:00,
2013-01-21 07:52:00,57.0,1.0,29.96,East,80,12.0,30.0,10,0.00,,,-99.99,,2013-01-21 15:52:00,
2013-01-21 08:23:00,58.0,2.0,29.97,East,80,14.0,26.0,10,0.00,,,-99.99,,2013-01-21 16:23:00,
2013-01-21 08:33:00,58.0,2.0,29.97,East,80,14.0,26.0,10,0.00,,,-99.99,,2013-01-21 16:33:00,
2013-01-21 08:43:00,58.0,2.0,29.97,East,80,14.0,26.0,10,0.00,,,-99.99,,2013-01-21 16:43:00,
2013-01-21 08:53:00,58.0,2.0,29.97,East,80,14.0,26.0,10,0.00,,,-99.99,,2013-01-21 16:53:00,
2013-01-21 09:22:00,64.0,4.0,29.99,East,80,20.0,27.0,9,0.00,,,-99.99,,2013-01-21 17:22:00,
2013-01-21 09:33:00,64.0,4.0,29.99,East,80,20.0,27.0,9,0.00,,,-99.99,,2013-01-21 17:33:00,
2013-01-21 09:42:00,64.0,4.0,29.99,East,80,20.0,27.0,9,0.00,,,-99.99,,2013-01-21 17:42:00,
2013-01-21 09:52:00,64.0,4.0,29.99,East,80,20.0,27.0,9,0.00,,,-99.99,,2013-01-21 17:52:00,
2013-01-21 10:22:00,65.0,-1.0,30.01,East,80,11.0,28.0,7,0.00,,,-99.99,,2013-01-21 18:22:00,
2013-01-21 10:33:00,65.0,-1.0,30.01,East,80,11.0,28.0,7,0.00,,,-99.99,,2013-01-21 18:33:00,
2013-01-21 10:42:00,65.0,-1.0,30.01,East,80,11.0,28.0,7,0.00,,,-99.99,,2013-01-21 18:42:00,
2013-01-21 10:52:00,65.0,-1.0,30.01,East,80,11.0,28.0,7,0.00,,,-99.99,,2013-01-21 18:52:00,
2013-01-21 11:22:00,67.0,4.0,30.02,East,80,15.0,26.0,8,0.00,,,-99.99,,2013-01-21 19:22:00,
2013-01-21 11:33:00,67.0,4.0,30.02,East,80,15.0,26.0,8,0.00,,,-99.99,,2013-01-21 19:33:00,
2013-01-21 11:42:00,67.0,4.0,30.02,East,80,15.0,26.0,8,0.00,,,-99.99,,2013-01-21 19:42:00,
2013-01-21 11:52:00,67.0,4.0,30.02,East,80,15.0,26.0,8,0.00,,,-99.99,,2013-01-21 19:52:00,
2013-01-21 12:23:00,69.0,8.0,29.99,East,80,8.0,24.0,9,0.00,,,-99.99,,2013-01-21 20:23:00,
2013-01-21 12:32:00,69.0,8.0,29.99,East,80,8.0,24.0,9,0.00,,,-99.99,,2013-01-21 20:32:00,
2013-01-21 12:43:00,69.0,8.0,29.99,East,80,8.0,24.0,9,0.00,,,-99.99,,2013-01-21 20:43:00,
2013-01-21 12:52:00,69.0,8.0,29.99,East,80,8.0,24.0,9,0.00,,,-99.99,,2013-01-21 20:52:00,
2013-01-21 13:22:00,69.0,8.0,29.98,East,90,14.0,22.0,9,0.00,,,-99.99,,2013-01-21 21:22:00,
2013-01-21 13:33:00,69.0,8.0,29.98,East,90,14.0,22.0,9,0.00,,,-99.99,,2013-01-21 21:33:00,
2013-01-21 13:43:00,69.0,8.0,29.98,East,90,14.0,22.0,9,0.00,,,-99.99,,2013-01-21 21:43:00,
2013-01-21 13:53:00,69.0,8.0,29.98,East,90,14.0,22.0,9,0.00,,,-99.99,,2013-01-21 21:53:00,
2013-01-21 14:23:00,70.0,6.0,29.96,East,100,7.0,16.0,8,0.00,,,-99.99,,2013-01-21 22:23:00,
2013-01-21 14:33:00,70.0,6.0,29.96,East,100,7.0,16.0,8,0.00,,,-99.99,,2013-01-21 22:33:00,
2013-01-21 14:42:00,70.0,6.0,29.96,East,100,7.0,16.0,8,0.00,,,-99.99,,2013-01-21 22:42:00,
2013-01-21 14:52:00,70.0,6.0,29.96,East,100,7.0,16.0,8,0.00,,,-99.99,,2013-01-21 22:52:00,
2013-01-21 15:22:00,68.0,9.0,29.96,East,100,11.0,17.0,10,0.00,,,-99.99,,2013-01-21 23:22:00,
2013-01-21 15:33:00,68.0,9.0,29.96,East,100,11.0,17.0,10,0.00,,,-99.99,,2013-01-21 23:33:00,
2013-01-21 15:42:00,68.0,9.0,29.96,East,100,11.0,17.0,10,0.00,,,-99.99,,2013-01-21 23:42:00,
2013-01-21 15:52:00,68.0,9.0,29.96,East,100,11.0,17.0,10,0.00,,,-99.99,,2013-01-21 23:52:00,
2013-01-21 16:22:00,65.0,9.0,29.96,East,90,7.0,17.0,11,0.00,,,-99.99,,2013-01-22 00:22:00,
2013-01-21 16:32:00,65.0,9.0,29.96,East,90,7.0,17.0,11,0.00,,,-99.99,,2013-01-22 00:32:00,
2013-01-21 16:42:00,65.0,9.0,29.96,East,90,7.0,17.0,11,0.00,,,-99.99,,2013-01-22 00:42:00,
2013-01-21 16:53:00,65.0,9.0,29.96,East,90,7.0,17.0,11,0.00,,,-99.99,,2013-01-22 00:53:00,
2013-01-21 17:23:00,61.0,6.0,29.96,East,100,5.0,14.0,11,0.00,,,-99.99,,2013-01-22 01:23:00,
2013-01-21 17:32:00,61.0,6.0,29.96,East,100,5.0,14.0,11,0.00,,,-99.99,,2013-01-22 01:32:00,
2013-01-21 17:42:00,61.0,6.0,29.96,East,100,5.0,14.0,11,0.00,,,-99.99,,2013-01-22 01:42:00,
2013-01-21 17:52:00,61.0,6.0,29.96,East,100,5.0,14.0,11,0.00,,,-99.99,,2013-01-22 01:52:00,
2013-01-21 18:22:00,58.0,4.0,29.95,East,90,11.0,18.0,11,0.00,,,-99.99,,2013-01-22 02:22:00,
2013-01-21 18:32:00,58.0,4.0,29.95,East,90,11.0,18.0,11,0.00,,,-99.99,,2013-01-22 02:32:00,
2013-01-21 18:42:00,58.0,4.0,29.95,East,90,11.0,18.0,11,0.00,,,-99.99,,2013-01-22 02:42:00,
2013-01-21 18:52:00,58.0,4.0,29.95,East,90,11.0,18.0,11,0.00,,,-99.99,,2013-01-22 02:52:00,
2013-01-21 19:22:00,59.0,3.0,29.95,East,90,10.0,17.0,10,0.00,,,-99.99,,2013-01-22 03:22:00,
2013-01-21 19:32:00,59.0,3.0,29.95,East,90,10.0,17.0,10,0.00,,,-99.99,,2013-01-22 03:32:00,
2013-01-21 19:42:00,59.0,3.0,29.95,East,90,10.0,17.0,10,0.00,,,-99.99,,2013-01-22 03:42:00,
2013-01-21 19:52:00,59.0,3.0,29.95,East,90,10.0,17.0,10,0.00,,,-99.99,,2013-01-22 03:52:00,
2013-01-21 20:22:00,58.0,-3.0,29.97,North,0,0.0,11.0,8,0.00,,,-99.99,,2013-01-22 04:22:00,
2013-01-21 20:32:00,58.0,-3.0,29.97,North,0,0.0,11.0,8,0.00,,,-99.99,,2013-01-22 04:32:00,
2013-01-21 20:42:00,58.0,-3.0,29.97,North,0,0.0,11.0,8,0.00,,,-99.99,,2013-01-22 04:42:00,
2013-01-21 20:52:00,58.0,-3.0,29.97,North,0,0.0,11.0,8,0.00,,,-99.99,,2013-01-22 04:52:00,
2013-01-21 21:22:00,56.0,4.0,29.99,East,90,3.0,5.0,12,0.00,,,-99.99,,2013-01-22 05:22:00,
2013-01-21 21:32:00,56.0,4.0,29.99,East,90,3.0,5.0,12,0.00,,,-99.99,,2013-01-22 05:32:00,
2013-01-21 21:42:00,56.0,4.0,29.99,East,90,3.0,5.0,12,0.00,,,-99.99,,2013-01-22 05:42:00,
2013-01-21 21:52:00,56.0,4.0,29.99,East,90,3.0,5.0,12,0.00,,,-99.99,,2013-01-22 05:52:00,
2013-01-21 22:22:00,55.0,-1.0,30.01,North,0,0.0,5.0,10,0.00,,,-99.99,,2013-01-22 06:22:00,
2013-01-21 22:32:00,55.0,-1.0,30.01,North,0,0.0,5.0,10,0.00,,,-99.99,,2013-01-22 06:32:00,
2013-01-21 22:42:00,55.0,-1.0,30.01,North,0,0.0,5.0,10,0.00,,,-99.99,,2013-01-22 06:42:00,
2013-01-21 22:52:00,55.0,-1.0,30.01,North,0,0.0,5.0,10,0.00,,,-99.99,,2013-01-22 06:52:00,
2013-01-21 23:22:00,52.0,1.0,30.01,East,90,2.0,9.0,12,0.00,,,-99.99,,2013-01-22 07:22:00,
2013-01-21 23:32:00,52.0,1.0,30.01,East,90,2.0,9.0,12,0.00,,,-99.99,,2013-01-22 07:32:00,
2013-01-21 23:42:00,52.0,1.0,30.01,East,90,2.0,9.0,12,0.00,,,-99.99,,2013-01-22 07:42:00,
2013-01-21 23:52:00,52.0,1.0,30.01,East,90,2.0,9.0,12,0.00,,,-99.99,,2013-01-22 07:52:00,